User: anonymous   Login
Location: Caracas
(10.5033°N, 66.8422°W)
Time: 18:21:04
(UTC-04:00)
Language:

Vanguard 3 - Orbit

View from above orbital plane
View from above orbital plane
View from above satellite
View from above satellite

Ground track
Ground track

The orbit data is extracted from the following two-line orbital elements,

1 00020U 59007A   18201.17452656  .00000058  00000-0  18559-4 0  9996
2 00020  33.3420 149.4360 1667193 162.9366 203.4949 11.55590156149836
Epoch (UTC): 20 July 2018 04:11:19
Eccentricity: 0.1667193
inclination: 33.3420°
perigee height: 508 km
apogee height: 3264 km
right ascension of ascending node: 149.4360°
argument of perigee: 162.9366°
revolutions per day: 11.55590156
mean anomaly at epoch: 203.4949°
orbit number at epoch: 14983

The dashed part of the orbit path shows where the satellite is in the earth's shadow,  

DLR